Location: Carlingford
(46.7848°N, 67.7474°W)
Time: 13:13:59
(UTC+00:00)

N. Korean satellite - Pass Details

Date: 01 December 2022
Orbit: 407 x 441 km, 97.3° (Epoch: 05 February)

Event Time Altitude Azimuth Distance (km) Brightness Sun altitude
Rises 09:58:57 0° 11° (N) 2,532 10.2 -19.2°
Reaches altitude 10° 10:01:02 10° 11° (N) 1,647 9.2 -18.9°
Maximum altitude 10:04:35 81° 283° (WNW) 481 6.3 -18.3°
Drops below altitude 10° 10:08:03 10° 197° (SSW) 1,614 9.2 -17.7°
Sets 10:09:57 0° 196° (SSW) 2,424 10.1 -17.4°
